Weather History for KIKW - December, 2013

Change the Weather History Date:

Monday, December 30, 2013

  Actual Average (KMBS) Record (KMBS)
Temperature  
Mean Temperature 12 °F 24 °F  
Max Temperature 17 °F 30 °F 48 °F (2002)
Min Temperature 8 °F 18 °F 7 °F (1998)
Degree Days  
Heating Degree Days 52    
Month to date heating degree days  
Since 1 July heating degree days  
Cooling Degree Days 0    
Month to date cooling degree days  
Year to date cooling degree days  
Moisture  
Dew Point 4 °F    
Average Humidity 63    
Maximum Humidity 75    
Minimum Humidity 49    
Precipitation  
Precipitation 0.00 in 0.05 in 0.21 in (2011)
Month to date precipitation 1.80  
Year to date precipitation 31.48  
Snow  
Snow 0.00 in - - ()
Month to date snowfall  
Since 1 July snowfall  
Snow Depth -    
Sea Level Pressure  
Sea Level Pressure 30.15 in    
Wind  
Wind Speed 5 mph (West)    
Max Wind Speed 12 mph    
Max Gust Speed -    
Visibility 10 miles    
Events Snow    
T = Trace of Precipitation, MM = Missing Value Source: NWS Daily Summary

Daily Weather History Graph

Daily Weather History Graph

Search for Another Location

Airport or City:

Trip Planner

Search our weather history database for the weather conditions in past years. The results will help you decide how hot, cold, wet, or windy it might be!

Date:

Astronomy

Dec. 30, 2013 Rise Set
Actual Time 8:10 AM EST 5:09 PM EST
Civil Twilight 7:37 AM EST 5:41 PM EST
Nautical Twilight 7:01 AM EST 6:18 PM EST
Astronomical Twilight 6:26 AM EST 6:53 PM EST
Moon 5:57 AM EST (12/30) 3:42 PM EST (12/30)
Length of Visible Light 10h 04m
Length of Day
8h 58m
Waning Crescent, 5% of the Moon is Illuminated
Dec 30
Waning Crescent
Jan 1
New
Jan 7
First Quarter
Jan 15
Full
Jan 24
Last Quarter

Hourly Weather History & Observations

Time (EST) Temp. Windchill Dew Point Humidity Pressure Visibility Wind Dir Wind Speed Gust Speed Precip Events Conditions
12:12 AM 17.2 °F 4.5 °F 6.8 °F 64% 30.03 in 10.0 mi NNW 11.5 mph - N/A   Overcast
12:32 AM 16.7 °F 5.3 °F 6.8 °F 65% 30.04 in 10.0 mi NNW 9.2 mph - N/A   Overcast
12:52 AM 16.5 °F 8.1 °F 6.6 °F 65% 30.04 in 10.0 mi WNW 5.8 mph - N/A   Overcast
1:12 AM 16.7 °F 6.2 °F 5.0 °F 60% 30.04 in 10.0 mi WNW 8.1 mph - N/A   Overcast
1:32 AM 16.5 °F 6.9 °F 5.5 °F 62% 30.05 in 10.0 mi NW 6.9 mph - N/A   Overcast
1:52 AM 16.5 °F 9.4 °F 5.9 °F 63% 30.05 in 10.0 mi NW 4.6 mph - N/A   Overcast
2:12 AM 16.0 °F 7.4 °F 6.3 °F 66% 30.07 in 10.0 mi NNW 5.8 mph - N/A   Overcast
2:32 AM 15.4 °F 5.6 °F 5.7 °F 65% 30.08 in 10.0 mi NNW 6.9 mph - N/A   Overcast
2:52 AM 14.9 °F 6.1 °F 6.1 °F 68% 30.09 in 10.0 mi NNW 5.8 mph - N/A   Overcast
3:12 AM 14.9 °F 5.0 °F 6.3 °F 69% 30.10 in 10.0 mi NNW 6.9 mph - N/A   Overcast
3:32 AM 14.5 °F 7.1 °F 6.6 °F 71% 30.11 in 10.0 mi NNW 4.6 mph - N/A Snow Light Snow
3:52 AM 14.5 °F 7.1 °F 6.6 °F 71% 30.12 in 10.0 mi NNW 4.6 mph - N/A   Overcast
4:12 AM 14.5 °F 8.8 °F 6.6 °F 71% 30.12 in 10.0 mi North 3.5 mph - N/A   Overcast
4:32 AM 14.4 °F 5.5 °F 6.6 °F 71% 30.13 in 10.0 mi NNW 5.8 mph - N/A   Overcast
4:52 AM 14.4 °F 6.9 °F 6.6 °F 71% 30.14 in 10.0 mi NNW 4.6 mph - N/A   Overcast
5:12 AM 14.4 °F 5.5 °F 6.4 °F 71% 30.14 in 10.0 mi NW 5.8 mph - N/A   Overcast
5:32 AM 14.4 °F - 6.4 °F 71% 30.14 in 10.0 mi Calm Calm - N/A   Overcast
5:52 AM 14.4 °F - 6.3 °F 70% 30.14 in 10.0 mi Calm Calm - N/A   Overcast
6:12 AM 13.8 °F - 5.9 °F 71% 30.15 in 10.0 mi Calm Calm - N/A   Overcast
6:32 AM 13.5 °F 7.5 °F 4.6 °F 68% 30.15 in 10.0 mi WNW 3.5 mph - N/A   Mostly Cloudy
6:52 AM 12.4 °F 6.3 °F 3.9 °F 69% 30.16 in 10.0 mi West 3.5 mph - N/A   Scattered Clouds
7:13 AM 11.3 °F 3.3 °F 3.2 °F 70% 30.17 in 10.0 mi WSW 4.6 mph - N/A   Mostly Cloudy
7:32 AM 11.3 °F 5.1 °F 3.0 °F 69% 30.18 in 10.0 mi WSW 3.5 mph - N/A   Overcast
7:52 AM 10.2 °F 2.0 °F 2.7 °F 72% 30.20 in 10.0 mi SW 4.6 mph - N/A   Overcast
8:10 AM 9.5 °F 3.0 °F 1.9 °F 71% 30.20 in 10.0 mi WSW 3.5 mph - N/A   Overcast
8:34 AM 8.6 °F - 1.4 °F 73% 30.21 in 10.0 mi Calm Calm - N/A   Scattered Clouds
8:48 AM 9.3 °F - 1.4 °F 70% 30.22 in 10.0 mi Calm Calm - N/A   Scattered Clouds
8:52 AM 9.1 °F 2.6 °F 1.2 °F 70% 30.22 in 10.0 mi West 3.5 mph - N/A   Clear
9:12 AM 9.3 °F - 1.2 °F 70% 30.22 in 10.0 mi Calm Calm - N/A   Clear
9:32 AM 11.5 °F 5.3 °F 0.7 °F 62% 30.23 in 10.0 mi West 3.5 mph - N/A   Clear
9:52 AM 12.7 °F 2.4 °F 0.7 °F 59% 30.24 in 10.0 mi West 6.9 mph - N/A   Clear
10:12 AM 14.2 °F 4.1 °F 0.9 °F 56% 30.25 in 10.0 mi West 6.9 mph - N/A   Clear
10:32 AM 14.9 °F 6.1 °F 0.3 °F 53% 30.25 in 10.0 mi West 5.8 mph - N/A   Clear
10:52 AM 15.4 °F 6.8 °F 0.7 °F 52% 30.25 in 10.0 mi West 5.8 mph - N/A   Clear
11:12 AM 15.4 °F 4.6 °F 0.3 °F 51% 30.25 in 10.0 mi West 8.1 mph - N/A   Clear
11:32 AM 15.8 °F 5.1 °F 0.7 °F 51% 30.24 in 10.0 mi WNW 8.1 mph - N/A   Clear
11:52 AM 16.5 °F 8.1 °F 0.5 °F 49% 30.23 in 10.0 mi West 5.8 mph - N/A   Clear
12:12 PM 16.7 °F 6.2 °F 1.2 °F 51% 30.22 in 10.0 mi NW 8.1 mph - N/A   Clear
12:32 PM 16.7 °F - 1.2 °F 51% 30.21 in 10.0 mi Calm Calm - N/A   Scattered Clouds
12:52 PM 17.8 °F 8.5 °F 2.1 °F 50% 30.20 in 10.0 mi West 6.9 mph - N/A   Mostly Cloudy
1:12 PM 17.8 °F 7.5 °F 2.7 °F 52% 30.20 in 10.0 mi SW 8.1 mph - N/A   Mostly Cloudy
1:32 PM 17.6 °F 8.2 °F 3.2 °F 53% 30.19 in 10.0 mi WSW 6.9 mph - N/A   Mostly Cloudy
1:52 PM 17.4 °F 6.2 °F 3.6 °F 55% 30.19 in 10.0 mi SW 9.2 mph - N/A   Mostly Cloudy
2:12 PM 17.4 °F - 3.4 °F 54% 30.18 in 10.0 mi Calm Calm - N/A   Mostly Cloudy
2:32 PM 17.2 °F 10.2 °F 3.0 °F 54% 30.17 in 10.0 mi NW 4.6 mph - N/A   Mostly Cloudy
2:52 PM 16.5 °F 9.4 °F 2.8 °F 55% 30.16 in 10.0 mi WNW 4.6 mph - N/A   Scattered Clouds
3:12 PM 16.0 °F 10.4 °F 3.6 °F 58% 30.16 in 10.0 mi NW 3.5 mph - N/A   Mostly Cloudy
3:32 PM 16.2 °F 10.6 °F 3.0 °F 56% 30.16 in 10.0 mi WNW 3.5 mph - N/A   Overcast
3:52 PM 16.0 °F - 3.0 °F 57% 30.17 in 10.0 mi Calm Calm - N/A   Overcast
4:12 PM 16.3 °F 10.8 °F 3.4 °F 57% 30.16 in 10.0 mi WNW 3.5 mph - N/A   Overcast
4:32 PM 16.2 °F - 3.7 °F 58% 30.17 in 10.0 mi Calm Calm - N/A   Overcast
4:52 PM 15.8 °F - 3.4 °F 58% 30.16 in 10.0 mi Calm Calm - N/A   Overcast
5:12 PM 16.0 °F 10.4 °F 3.9 °F 59% 30.16 in 10.0 mi WSW 3.5 mph - N/A   Overcast
5:32 PM 16.0 °F - 4.3 °F 60% 30.16 in 10.0 mi Calm Calm - N/A   Overcast
5:52 PM 16.0 °F - 3.2 °F 57% 30.16 in 10.0 mi Calm Calm - N/A   Overcast
6:12 PM 15.4 °F 9.8 °F 4.5 °F 62% 30.16 in 10.0 mi SSW 3.5 mph - N/A   Overcast
6:32 PM 15.4 °F 9.8 °F 4.5 °F 62% 30.15 in 10.0 mi SSW 3.5 mph - N/A   Overcast
6:52 PM 15.3 °F - 5.2 °F 64% 30.15 in 10.0 mi Calm Calm - N/A   Overcast
7:12 PM 15.4 °F - 5.0 °F 63% 30.15 in 10.0 mi Calm Calm - N/A   Overcast
7:32 PM 15.3 °F 9.6 °F 6.1 °F 67% 30.14 in 10.0 mi SSW 3.5 mph - N/A   Overcast
7:52 PM 15.4 °F - 6.1 °F 67% 30.14 in 10.0 mi Calm Calm - N/A   Overcast
8:12 PM 15.3 °F - 6.4 °F 68% 30.14 in 10.0 mi Calm Calm - N/A   Overcast
8:32 PM 15.4 °F - 5.7 °F 65% 30.13 in 10.0 mi Calm Calm - N/A   Overcast
8:52 PM 15.3 °F - 5.7 °F 66% 30.13 in 10.0 mi Calm Calm - N/A   Overcast
9:12 PM 15.3 °F 9.6 °F 5.9 °F 67% 30.12 in 10.0 mi SSW 3.5 mph - N/A   Overcast
9:32 PM 15.3 °F 9.6 °F 6.4 °F 68% 30.12 in 10.0 mi South 3.5 mph - N/A   Overcast
9:52 PM 14.9 °F 9.2 °F 6.3 °F 69% 30.11 in 10.0 mi SSW 3.5 mph - N/A   Overcast
10:12 PM 14.5 °F 8.8 °F 5.7 °F 68% 30.10 in 10.0 mi South 3.5 mph - N/A   Overcast
10:32 PM 14.5 °F - 5.9 °F 69% 30.10 in 10.0 mi Calm Calm - N/A Snow Light Snow
10:52 PM 14.5 °F - 6.1 °F 69% 30.09 in 10.0 mi Calm Calm - N/A   Overcast
11:12 PM 14.4 °F - 6.4 °F 71% 30.09 in 10.0 mi Calm Calm - N/A   Overcast
11:32 PM 14.5 °F 8.8 °F 6.8 °F 71% 30.09 in 10.0 mi WSW 3.5 mph - N/A   Mostly Cloudy
11:52 PM 14.4 °F 6.9 °F 7.7 °F 75% 30.08 in 7.0 mi SW 4.6 mph - N/A Snow Light Snow